[[{"header":{"parameterUnit":"m.s-1","parameterCategory":1,"la1":30.2991,"la2":30.254,"lo1":-89.0895,"lo2":-89.0444,"dy":0.0017,"dx":0.0017,"nx":28,"ny":28,"refTime":"2024-06-20T21:00:00:Z","depth":0,"parameterNumber":2,"parameterNumberName":"U-component_of_WINDS"},"data":[0,0,0,0,0,0,0,0,0,0,0,0,0,0,0,0,0,0,0,0,0,0,0,0,0,0,0,0,0,0,0,0,0,0,0,0,0,0,0,0,0,0,0,0,0,0,0,0,0,0,0,0,0,0,0,0,0,0,-3.7142,-3.7141,0,-3.7064,-3.7063,-3.7062,-3.6916,-3.6913,-3.691,-3.6908,-3.6831,-3.6832,-3.6832,0,0,0,0,0,0,0,0,0,0,0,0,0,-3.7171,-3.7171,-3.7142,-3.7141,-3.714,-3.7064,-3.7063,-3.7062,-3.6917,-3.6913,-3.691,-3.6906,-3.6831,-3.6832,-3.6832,0,0,0,0,0,0,0,0,0,0,0,0,0,-3.7132,-3.7171,-3.7142,-3.7058,-3.705,-3.7064,-3.7063,-3.7061,-3.6917,-3.6913,-3.6909,-3.6905,-3.6831,-3.6832,-3.6833,-3.6923,0,0,-3.6835,-3.6836,0,0,0,0,0,0,0,0,-3.7134,-3.7131,-3.7072,-3.7064,-3.7055,-3.6995,-3.7044,-3.7015,-3.6918,-3.6968,-3.6908,-3.6903,-3.6889,-3.6885,-3.688,-3.6919,-3.6916,-3.6835,-3.6836,-3.6836,-3.6837,0,0,0,0,0,0,0,-3.7137,-3.7134,-3.7111,-3.7071,-3.7061,-3.7026,-3.7016,-3.7038,-3.6954,-3.6963,-3.6952,-3.6945,-3.6884,-3.6879,-3.6877,-3.6915,-3.6835,-3.6836,-3.6837,-3.6837,-3.7026,-3.703,0,0,0,0,0,0,-3.7152,-3.7137,-3.7113,-3.7109,-3.7085,-3.7029,-3.7018,-3.7019,-3.6953,-3.6939,-3.6949,-3.6938,-3.688,-3.6876,-3.6874,-3.6976,-3.6836,-3.6837,-3.6838,-3.7022,-3.7027,-3.7032,0,0,0,0,0,0,-3.7153,-3.7151,-3.7117,-3.712,-3.7113,-3.7033,-3.7035,-3.7019,-3.7014,-3.6942,-3.6926,-3.6959,-3.6877,-3.6873,-3.6912,-3.6971,-3.6838,-3.6838,-3.7016,-3.7023,-3.7029,-3.7181,0,0,0,0,0,0,-3.7154,-3.7152,-3.7185,-3.7122,-3.7113,-3.7155,-3.7039,-3.7021,-3.7016,-3.7002,-3.6948,-3.6935,-3.6873,-3.6911,-3.6913,-3.697,-3.6839,-3.7011,-3.7019,-3.7027,-3.717,-3.7192,-3.7211,0,0,0,0,0,-3.7156,-3.7231,-3.7187,-3.7185,-3.7152,-3.7159,-3.7154,-3.708,-3.7021,-3.7054,-3.7008,-3.6936,-3.6965,-3.6917,-3.6917,-3.6976,-3.7007,-3.7017,-3.7027,-3.7161,-3.7188,-3.721,0,0,0,0,0,0,-3.7304,-3.7221,-3.7171,-3.7228,-3.7202,-3.7134,-3.7173,-3.7111,-3.7101,-3.7089,-3.6999,-3.6988,-3.704,-3.7011,-3.6959,-3.706,-3.6974,-3.6985,-3.7077,-3.7101,-3.7121,-3.7127,-3.684,0,0,0,0,0,-3.7343,-3.7354,-3.7282,-3.7339,-3.7328,-3.7253,-3.7254,-3.7199,-3.7169,-3.7157,-3.7113,-3.7087,-3.709,-3.7094,-3.7093,-3.7166,-3.7153,-3.7206,-3.7227,-3.7244,-3.7254,-3.7292,-3.7315,-3.7065,-3.7065,-3.7065,0,0,-3.7424,-3.738,-3.7393,-3.7367,-3.734,-3.7356,-3.7245,-3.7265,-3.7276,-3.716,-3.7194,-3.7162,-3.7127,-3.7184,-3.7207,-3.7162,-3.732,-3.7256,-3.7271,-3.7271,-3.7305,-3.7329,-3.735,-3.7072,-3.7071,-3.707,0,0,-3.7579,-3.7547,-3.7591,-3.7567,-3.7527,-3.7477,-3.7488,-3.743,-3.7404,-3.7437,-3.7351,-3.7363,-3.737,-3.7349,-3.734,-3.749,-3.7424,-3.7492,-3.7597,-3.7635,-3.7655,-3.7672,-3.7727,-3.7747,-3.7502,-3.7503,-3.7503,0,-3.7685,-3.7703,-3.7622,-3.7648,-3.764,-3.7536,-3.7581,-3.7562,-3.7525,-3.7522,-3.7472,-3.748,-3.7449,-3.75,-3.7537,-3.7532,-3.7543,-3.7497,-3.7659,-3.7675,-3.769,-3.7741,-3.7761,-3.7511,-3.751,-3.7509,-3.7509,0,-3.7836,-3.785,-3.7891,-3.7857,-3.7854,-3.789,-3.7816,-3.7823,-3.7769,-3.7726,-3.7762,-3.7721,-3.771,-3.7719,-3.7667,-3.7763,-3.7737,-3.7675,-3.7586,-3.7723,-3.777,-3.7789,-3.7524,-3.752,-3.7518,-3.7516,0,0,-3.8081,-3.8003,-3.8019,-3.8003,-3.7952,-3.7962,-3.7995,-3.7983,-3.7991,-3.797,-3.7996,-3.8005,-3.7947,-3.7936,-3.7882,-3.7915,-3.8038,-3.7848,-3.7846,-3.7886,-3.8143,-3.8191,-3.8215,-3.7994,-3.7998,-3.8,-3.8147,0,-3.8226,-3.8274,-3.8203,-3.8269,-3.8282,-3.8184,-3.8212,-3.8185,-3.8146,-3.8152,-3.8109,-3.8117,-3.8039,-3.8033,-3.8061,-3.8017,-3.8089,-3.8005,-3.8019,-3.802,-3.8031,-3.8239,-3.8289,-3.8428,-3.8164,-3.8167,-3.8169,0,-3.84,-3.8387,-3.8454,-3.84,-3.8403,-3.8429,-3.8414,-3.8421,-3.839,-3.8359,-3.8348,-3.8283,-3.8313,-3.8228,-3.8268,-3.8213,-3.8215,-3.8195,-3.8198,-3.8197,-3.8103,-3.8244,-3.8471,-3.8493,-3.8197,-3.8195,-3.8193,0,-3.8573,-3.8572,-3.8612,-3.8601,-3.854,-3.8561,-3.8537,-3.8501,-3.8499,-3.8486,-3.8485,-3.8477,-3.8472,-3.8468,-3.8404,-3.8348,-3.8453,-3.8362,-3.8429,-3.8431,-3.8456,-3.8455,-3.8687,-3.8457,-3.8456,-3.8456,-3.8456,0,-3.8742,-3.8787,-3.8689,-3.8714,-3.8762,-3.8681,-3.8731,-3.8697,-3.8667,-3.8684,-3.86,-3.8618,-3.8532,-3.8542,-3.8492,-3.8534,-3.8532,-3.8509,-3.8496,-3.8517,-3.852,-3.8517,-3.8506,-3.8462,-3.846,-3.8459,-3.8458,0,-3.8943,-3.8879,-3.8916,-3.8855,-3.8841,-3.888,-3.8828,-3.885,-3.8805,-3.8829,-3.883,-3.8761,-3.8768,-3.8703,-3.8699,-3.8665,-3.8731,-3.8701,-3.8742,-3.8732,-3.8803,-3.8798,-3.9042,-3.907,-3.8822,-3.8824,-3.8826,0,-3.9055,-3.9087,-3.903,-3.9035,-3.9015,-3.9025,-3.9023,-3.8945,-3.8947,-3.8915,-3.8941,-3.8941,-3.8937,-3.8955,-3.8905,-3.8902,-3.887,-3.8956,-3.8869,-3.8891,-3.8873,-3.8872,-3.8875,-3.8975,-3.8978,-3.898,-3.8982,0,-3.9261,-3.9228,-3.9227,-3.9217,-3.9216,-3.9204,-3.9187,-3.9197,-3.9113,-3.912,-3.9126,-3.9123,-3.9119,-3.9121,-3.9108,-3.9085,-3.9021,-3.901,-3.9025,-3.9048,-3.9071,-3.906,-3.8792,-3.9005,-3.9002,-3.9001,-3.9,-3.8999,-3.9421,-3.9445,-3.9409,-3.9412,-3.9391,-3.9377,-3.9394,-3.9352,-3.9356,-3.9346,-3.93,-3.9316,-3.9285,-3.9261,-3.9244,-3.9256,-3.9215,-3.9237,-3.9243,-3.925,-3.9263,-3.9069,-3.9254,-3.9253,-3.9252,-3.9252,-3.9251,0,-3.9622,-3.9595,-3.9598,-3.9576,-3.958,-3.9518,-3.9496,-3.9503,-3.9517,-3.9494,-3.9492,-3.9501,-3.9503,-3.9454,-3.9451,-3.947,-3.9441,-3.9472,-3.947,-3.9466,-3.93,-3.9287,-3.9496,-3.9496,-3.9496,-3.9496,-3.9495,-3.9495,-3.9728,-3.9766,-3.973,-3.9758,-3.973,-3.9743,-3.9737,-3.9724,-3.9705,-3.9718,-3.9719,-3.9687,-3.9654,-3.9648,-3.9649,-3.9634,-3.9637,-3.9679,-3.9655,-3.9501,-3.9477,-3.9455,-3.9442,-3.968,-3.968,-3.982,-3.9821,-3.9822]},{"header":{"parameterUnit":"m.s-1","parameterCategory":1,"la1":30.2991,"la2":30.254,"lo1":-89.0895,"lo2":-89.0444,"dy":0.0017,"dx":0.0017,"nx":28,"ny":28,"refTime":"2024-06-20T21:00:00:Z","depth":0,"parameterNumber":3,"parameterNumberName":"V-component_of_WINDS"},"data":[0,0,0,0,0,0,0,0,0,0,0,0,0,0,0,0,0,0,0,0,0,0,0,0,0,0,0,0,0,0,0,0,0,0,0,0,0,0,0,0,0,0,0,0,0,0,0,0,0,0,0,0,0,0,0,0,0,0,1.5484,1.5483,0,1.5391,1.539,1.5389,1.5354,1.5355,1.5355,1.5355,1.5254,1.5251,1.5248,0,0,0,0,0,0,0,0,0,0,0,0,0,1.5628,1.5626,1.5484,1.5483,1.5482,1.5391,1.539,1.5388,1.5354,1.5355,1.5355,1.5355,1.5255,1.5251,1.5248,0,0,0,0,0,0,0,0,0,0,0,0,0,1.5553,1.5625,1.5484,1.5454,1.545,1.5391,1.539,1.5388,1.5354,1.5355,1.5355,1.5356,1.5256,1.5252,1.5247,1.521,0,0,1.5233,1.5231,0,0,0,0,0,0,0,0,1.5557,1.5548,1.5459,1.5456,1.5452,1.5385,1.5403,1.5328,1.5354,1.539,1.5355,1.5356,1.5297,1.5289,1.527,1.5205,1.52,1.5233,1.523,1.5228,1.5227,0,0,0,0,0,0,0,1.5563,1.5552,1.5447,1.5458,1.5453,1.5444,1.5433,1.5389,1.5342,1.5387,1.5385,1.5374,1.5294,1.5274,1.5267,1.5199,1.5233,1.5229,1.5226,1.5224,1.51,1.5099,0,0,0,0,0,0,1.5574,1.5556,1.545,1.5444,1.5507,1.5441,1.5429,1.5406,1.5342,1.5333,1.5374,1.5373,1.5282,1.5273,1.5264,1.5216,1.5228,1.5224,1.5221,1.51,1.5099,1.5099,0,0,0,0,0,0,1.5577,1.5565,1.5454,1.5499,1.5485,1.5438,1.5411,1.5404,1.5384,1.5332,1.5323,1.5363,1.5282,1.527,1.5224,1.5212,1.5222,1.5218,1.5101,1.51,1.5099,1.512,0,0,0,0,0,0,1.5581,1.5566,1.5552,1.55,1.5482,1.5417,1.5411,1.5401,1.5377,1.5374,1.5319,1.531,1.5281,1.5231,1.522,1.5206,1.5214,1.5102,1.51,1.5099,1.512,1.512,1.512,0,0,0,0,0,1.5586,1.556,1.5551,1.5539,1.5464,1.5416,1.5406,1.5375,1.5376,1.5361,1.5328,1.5312,1.5216,1.5227,1.5213,1.5198,1.5102,1.5101,1.5099,1.512,1.512,1.512,0,0,0,0,0,0,1.5609,1.5552,1.5542,1.5498,1.5463,1.541,1.539,1.5376,1.5337,1.5337,1.5299,1.5286,1.5243,1.5216,1.5229,1.5159,1.5158,1.5154,1.5178,1.5178,1.5177,1.5184,1.5211,0,0,0,0,0,1.5609,1.5577,1.5528,1.5494,1.5477,1.5437,1.5415,1.5395,1.5355,1.5339,1.5303,1.5264,1.5225,1.52,1.5161,1.5117,1.5104,1.51,1.51,1.51,1.5096,1.5072,1.5069,1.5094,1.5094,1.5094,0,0,1.5608,1.5573,1.5554,1.5498,1.5468,1.5434,1.5424,1.5388,1.5362,1.5333,1.5288,1.5261,1.5215,1.517,1.5148,1.5146,1.5087,1.5099,1.5099,1.5095,1.507,1.5068,1.5066,1.5093,1.5093,1.5094,0,0,1.5589,1.556,1.5529,1.55,1.5456,1.543,1.5423,1.5374,1.5355,1.531,1.5288,1.5257,1.519,1.5159,1.5134,1.5107,1.509,1.5095,1.5093,1.507,1.5068,1.5066,1.5056,1.5052,1.5092,1.5092,1.5092,0,1.5593,1.5542,1.5514,1.548,1.5455,1.5431,1.5399,1.5372,1.5316,1.5299,1.5299,1.5217,1.5184,1.5131,1.5126,1.5106,1.5096,1.51,1.5071,1.5068,1.5066,1.5056,1.5052,1.5093,1.5093,1.5093,1.5093,0,1.5549,1.5514,1.5494,1.5444,1.5418,1.5385,1.5351,1.5327,1.531,1.5285,1.5239,1.52,1.5154,1.514,1.5122,1.5086,1.5086,1.5079,1.5076,1.5065,1.5055,1.5051,1.5094,1.5094,1.5094,1.5094,0,0,1.5537,1.5476,1.5468,1.5446,1.5398,1.537,1.5336,1.5293,1.5274,1.5237,1.5207,1.5154,1.5148,1.512,1.5098,1.5078,1.5059,1.5073,1.5071,1.5071,1.5017,1.5021,1.5018,1.5049,1.5049,1.5048,1.502,0,1.5511,1.5451,1.5426,1.5377,1.5345,1.5324,1.5294,1.5261,1.5237,1.5205,1.5177,1.514,1.5135,1.5118,1.5097,1.5066,1.5048,1.5068,1.5019,1.5018,1.503,1.5012,1.5016,1.4992,1.5016,1.5016,1.5015,0,1.547,1.5437,1.5386,1.5344,1.5329,1.5303,1.5263,1.5234,1.5196,1.518,1.5151,1.5131,1.5094,1.5097,1.5045,1.506,1.5039,1.5021,1.5019,1.5011,1.5014,1.5003,1.4984,1.498,1.5009,1.5009,1.501,0,1.5466,1.5409,1.5371,1.5353,1.5303,1.5285,1.5263,1.5226,1.5203,1.5167,1.5152,1.5112,1.509,1.5059,1.5029,1.5034,1.498,1.498,1.4964,1.4965,1.4952,1.4953,1.4927,1.4941,1.4941,1.4942,1.4942,0,1.5438,1.5407,1.5369,1.5345,1.5311,1.5283,1.5249,1.5225,1.5193,1.5164,1.5143,1.5115,1.5079,1.5047,1.5023,1.4984,1.4974,1.4959,1.4953,1.496,1.4962,1.4944,1.4944,1.494,1.4941,1.4941,1.4941,0,1.5426,1.5399,1.5356,1.5314,1.5303,1.5279,1.5242,1.5218,1.5195,1.5159,1.5148,1.5111,1.5073,1.5041,1.4989,1.4974,1.4933,1.4926,1.4946,1.4942,1.4929,1.493,1.4889,1.4883,1.4903,1.4903,1.4903,0,1.5408,1.5385,1.5341,1.5322,1.5301,1.5269,1.5246,1.5219,1.5196,1.5153,1.5134,1.5095,1.5062,1.5002,1.4969,1.493,1.4921,1.491,1.4915,1.4923,1.492,1.4921,1.4918,1.4909,1.4909,1.4909,1.4908,0,1.538,1.5369,1.5338,1.5303,1.5277,1.5248,1.5218,1.5202,1.517,1.5145,1.5107,1.5082,1.5032,1.4993,1.4951,1.4927,1.4912,1.4908,1.4902,1.4908,1.492,1.4913,1.4943,1.4908,1.4908,1.4908,1.4908,1.4908,1.5363,1.5342,1.5309,1.5276,1.5251,1.5225,1.5201,1.5176,1.5145,1.5104,1.509,1.5051,1.5015,1.4958,1.4935,1.4903,1.4901,1.4893,1.489,1.4888,1.4889,1.4928,1.4895,1.4895,1.4895,1.4895,1.4895,0,1.5333,1.5312,1.5282,1.5242,1.5216,1.5209,1.5176,1.5154,1.5121,1.5091,1.506,1.5017,1.498,1.4947,1.4908,1.4889,1.4881,1.488,1.488,1.4874,1.4893,1.4902,1.4887,1.4887,1.4887,1.4887,1.4887,1.4887,1.5314,1.5278,1.5263,1.5215,1.5194,1.5158,1.514,1.5115,1.5091,1.5045,1.5015,1.4995,1.4963,1.4923,1.4888,1.4879,1.4865,1.4865,1.4854,1.4872,1.4873,1.4874,1.4882,1.4863,1.4863,1.4838,1.4838,1.4838]}]]